Regional Weather Roundup
Issued by NWS

Home | Current Version | Previous Version | Graphics & Text | Print | Product List | Glossary On
Versions: 1 2 3 4 5 6 7 8 9 10 11 12 13 14 15 16 17 18 19 20 21 22 23 24 25 26 27
000
ASUS45 KBOU 240207
RWRCO

WEATHER ROUNDUP FOR COLORADO
NATIONAL WEATHER SERVICE DENVER/BOULDER CO
800 PM MDT FRI JUN 23 2017

NOTE: "FAIR" INDICATES FEW OR NO CLOUDS BELOW 12000 FEET WITH NO
SIGNIFICANT WEATHER AND/OR OBSTRUCTIONS TO VISIBILITY.

COZ001>005-013-030-031-240300-
...NORTHWEST COLORADO...

CITY           SKY/WX    TMP DP  RH WIND       PRES   REMARKS
CRAIG          FAIR      75  36  24 CALM      30.18S
HAYDEN         FAIR      73  30  20 CALM      30.21S
MEEKER         FAIR      75  29  18 NE6       30.18S
RABBIT EARS PA FAIR      52  28  40 W9G16     30.49R
STEAMBOAT SPGS FAIR      71  35  26 NW3       30.23S
WALDEN         FAIR      63  28  27 NW9       30.33S
$$

COZ006>008-011-240300-
...WEST CENTRAL VALLEYS...

CITY           SKY/WX    TMP DP  RH WIND       PRES   REMARKS
GRAND JUNCTION FAIR      89  10   5 N12       30.01S
MONTROSE       FAIR      83  27  13 N10       30.10R
EAGLE          FAIR      79  19  10 NW12G20   30.20R
RIFLE          FAIR      84  23  10 VRB3      30.09R
DELTA          FAIR      91  13   5 NW10      30.05S
NUCLA          FAIR      84  19   9 NW8       30.15R
$$

COZ017>023-064>068-240300-
...SOUTHWEST COLORADO...

CITY           SKY/WX    TMP DP  RH WIND       PRES   REMARKS
DURANGO        FAIR      83  14   7 NW12      30.15R
CORTEZ         FAIR      86  21   9 N9G21     30.10R
PAGOSA SPRINGS FAIR      81   7   6 W12G22    30.22R
TELLURIDE      FAIR      73  16  11 NW10G18   30.40R
WOLF CREEK PAS FAIR      59  14  17 W5        30.62S
$$

COZ009-010-012-014-032>034-037-058>063-240300-
...CENTRAL COLORADO...

CITY           SKY/WX    TMP DP  RH WIND       PRES   REMARKS
ASPEN          FAIR      71  22  15 NW10      30.26R
BUENA VISTA    FAIR      60  44  54 SE17      30.28R
COPPER MTN     FAIR      57  21  24 NW14G21   30.59R
BERTHOUD PASS  FAIR      45  32  61 NW25      30.60S
COTTONWOOD PAS FAIR      70  12  11 NW5       30.41R
GUNNISON       FAIR      76  24  14 NW9       30.24R
KREMMLING      NOT AVBL
LEADVILLE      FAIR      63   4   9 NW9G18    30.41R
MONARCH PASS   FAIR      59  21  23 W25G33    30.68R
SALIDA         FAIR      55  47  74 SE17G30   30.34R
SUNLIGHT       FAIR      55  21  26 W3        30.54R
WILKERSON PASS FAIR      45  39  81 E9        30.55R
$$

COZ069>075-240300-
...SAN LUIS VALLEY/SANGRE DE CRISTO MOUNTAINS...

CITY           SKY/WX    TMP DP  RH WIND       PRES   REMARKS
ALAMOSA        FAIR      78  24  13 N14G21    30.17R
DEL NORTE      FAIR      79  12   8 NW22G31   30.21R
LA VETA PASS   DRZL/FOG  43  41  93 N12G18    30.55R VSB 1/4
SAGUACHE       FAIR      77  19  11 N13G25    30.23R
$$

COZ035-036-038>040-240300-
...NORTHERN COLORADO FRONT RANGE...

CITY           SKY/WX    TMP DP  RH WIND       PRES   REMARKS
DENVER INTL AP MOCLDY    59  46  62 W9        30.28R
DMNS CITY PARK   N/A     57  46  66 SE7       30.28S
AURORA         PTCLDY    56  47  71 W7        30.29R
FRONT RANGE AP CLOUDY    63  48  59 W12       30.29R
ERIE MUNI ARPT FAIR      60  46  61 CALM      30.27R
BOULDER MUN AP FAIR      59  46  63 CALM      30.27S
CENTENNIAL     FAIR      54  47  77 SW6       30.30R
BROOMFIELD     FAIR      57  46  67 S5        30.30R
FORT COLLINS   FAIR      60  46  59 S7        30.27R
LONGMONT       FAIR      62  46  56 SW3       30.29R
$$

COZ041-046-047-076>085-087-088-240300-
...PIKES PEAK/PALMER DIVIDE AND SOUTHERN FOOTHILLS...

CITY           SKY/WX    TMP DP  RH WIND       PRES   REMARKS
COLO. SPRINGS  CLOUDY    56  47  71 CALM      30.32R
A. F. ACADEMY  CLOUDY    53  47  81 CALM      30.33R
SCHRIEVER AFB  CLOUDY    55  45  69 CALM      30.32R
CHEYENNE MTN   CLOUDY    50  48  93 CALM      30.30R FOG
ELLICOTT       CLOUDY   N/A N/A N/A CALM      30.30R
FALCON           N/A     53  44  71 CALM      30.36R
FORT CARSON    CLOUDY    56  48  73 CALM      30.30R
LIMON          CLOUDY    61  43  51 SE5       30.28R
MONUMENT HILL  CLOUDY    50  45  81 W5        30.36R
CANON CITY     CLOUDY    59  54  82 MISG      30.28R
WALSENBURG     CLOUDY    59  50  72 NW7       30.29R
TRINIDAD       MOCLDY    64  50  60 CALM      30.25R
$$

COZ042>045-048>051-090-091-240300-
...NORTHEAST COLORADO...

CITY           SKY/WX    TMP DP  RH WIND       PRES   REMARKS
GREELEY ARPT   FAIR      65  46  50 SW6       30.26R
AKRON          FAIR      64  43  46 NW5       30.24R
BURLINGTON     FAIR      62  53  72 W6        30.22R
WRAY           FAIR      68  43  40 NW3       30.19R
YUMA           NOT AVBL
STERLING       NOT AVBL
HOLYOKE        NOT AVBL
FORT MORGAN    CLOUDY    65  45  48 S3        30.24R
$$

COZ086-089-092>099-240300-
...SOUTHEAST COLORADO...

CITY           SKY/WX    TMP DP  RH WIND       PRES   REMARKS
PUEBLO         CLOUDY    64  49  57 NE6       30.24R
LA JUNTA       CLOUDY    69  44  40 NE8       30.21R
LAMAR          CLOUDY    69  46  43 NE8       30.18R
SPRINGFIELD      N/A     63  46  54 E7        30.20S
$$




USA.gov is the U.S. government's official web portal to all federal, state and local government web resources and services.